[[{"header":{"parameterUnit":"m.s-1","parameterCategory":2,"la1":30.2991,"la2":30.254,"lo1":-89.0895,"lo2":-89.0444,"dy":0.0017,"dx":0.0017,"nx":28,"ny":28,"refTime":"2025-01-13T03:00:00:Z","depth":"0","parameterNumber":2,"parameterNumberName":"U-component_of_CURRENTS"},"data":[0,0,0,0,0,0,0,0,0,0,0,0,0,0,0,0,0,0,0,0,0,0,0,0,0,0,0,0,0,0,0,0,0,0,0,0,0,0,0,0,0,0,0,0,0,0,0,0,0,0,0,0,0,0,0,0,0,0,-0.2578,-0.2578,0,-0.2583,-0.2583,-0.2583,-0.2543,-0.2542,-0.2542,-0.2541,-0.251,-0.251,-0.251,0,0,0,0,0,0,0,0,0,0,0,0,0,-0.2511,-0.2513,-0.2578,-0.2578,-0.2579,-0.2583,-0.2583,-0.2583,-0.2544,-0.2542,-0.2541,-0.254,-0.251,-0.251,-0.251,0,0,0,0,0,0,0,0,0,0,0,0,0,-0.2529,-0.2513,-0.2578,-0.2561,-0.256,-0.2583,-0.2583,-0.2583,-0.2544,-0.2542,-0.2541,-0.254,-0.251,-0.251,-0.251,-0.2538,0,0,-0.2511,-0.2511,0,0,0,0,0,0,0,0,-0.2528,-0.2531,-0.2563,-0.2562,-0.2561,-0.2563,-0.2548,-0.2567,-0.2544,-0.2548,-0.2541,-0.2539,-0.2527,-0.2526,-0.2527,-0.2537,-0.2535,-0.2511,-0.2511,-0.2511,-0.2511,0,0,0,0,0,0,0,-0.2527,-0.2531,-0.2578,-0.2564,-0.2562,-0.2545,-0.2546,-0.2551,-0.2543,-0.2547,-0.2545,-0.2549,-0.2526,-0.2527,-0.2526,-0.2535,-0.2511,-0.2511,-0.2511,-0.2511,-0.2553,-0.2554,0,0,0,0,0,0,-0.2533,-0.253,-0.2578,-0.2578,-0.2543,-0.2548,-0.2549,-0.2562,-0.2543,-0.254,-0.255,-0.2547,-0.2528,-0.2526,-0.2525,-0.2548,-0.2511,-0.2511,-0.2511,-0.2552,-0.2553,-0.2555,0,0,0,0,0,0,-0.2532,-0.2538,-0.2578,-0.2555,-0.2559,-0.2551,-0.2566,-0.2563,-0.2559,-0.2546,-0.2542,-0.2549,-0.2527,-0.2525,-0.2531,-0.2546,-0.2511,-0.2511,-0.2551,-0.2553,-0.2554,-0.2599,0,0,0,0,0,0,-0.253,-0.2538,-0.2546,-0.2556,-0.2561,-0.2597,-0.2567,-0.2564,-0.2565,-0.2561,-0.2544,-0.254,-0.2525,-0.2531,-0.2531,-0.2546,-0.2511,-0.2549,-0.2552,-0.2553,-0.2596,-0.2602,-0.2607,0,0,0,0,0,-0.2528,-0.2552,-0.2547,-0.2552,-0.2574,-0.2598,-0.2599,-0.2586,-0.2567,-0.2575,-0.256,-0.254,-0.2543,-0.2532,-0.2532,-0.2547,-0.2548,-0.2551,-0.2553,-0.2594,-0.2601,-0.2607,0,0,0,0,0,0,-0.2532,-0.2551,-0.2545,-0.2574,-0.2585,-0.2592,-0.2599,-0.2591,-0.2587,-0.2577,-0.2556,-0.2553,-0.2564,-0.2554,-0.2541,-0.2566,-0.2542,-0.2545,-0.2573,-0.258,-0.2585,-0.2584,-0.2511,0,0,0,0,0,-0.2538,-0.2553,-0.2571,-0.2591,-0.26,-0.2599,-0.2604,-0.2599,-0.2599,-0.2595,-0.2583,-0.2574,-0.2577,-0.2575,-0.2576,-0.2592,-0.2577,-0.2602,-0.2607,-0.2612,-0.2612,-0.2607,-0.2611,-0.2563,-0.2563,-0.2563,0,0,-0.2542,-0.2556,-0.2563,-0.2592,-0.2596,-0.2616,-0.2598,-0.2614,-0.2624,-0.2595,-0.2601,-0.2594,-0.2587,-0.2602,-0.2606,-0.2592,-0.262,-0.2615,-0.2619,-0.2616,-0.261,-0.2614,-0.2618,-0.2564,-0.2564,-0.2564,0,0,-0.2556,-0.2575,-0.2587,-0.2605,-0.2621,-0.2629,-0.2636,-0.2646,-0.2644,-0.2658,-0.2638,-0.2641,-0.2643,-0.2641,-0.2641,-0.2679,-0.265,-0.2679,-0.2704,-0.2699,-0.2703,-0.2706,-0.2697,-0.2699,-0.268,-0.268,-0.268,0,-0.2554,-0.2578,-0.2595,-0.2615,-0.263,-0.2637,-0.2655,-0.2668,-0.2675,-0.2679,-0.2664,-0.2671,-0.2663,-0.2681,-0.2692,-0.2691,-0.2679,-0.2679,-0.2705,-0.2708,-0.271,-0.27,-0.2702,-0.2683,-0.2682,-0.2682,-0.2682,0,-0.2572,-0.2595,-0.261,-0.2635,-0.2659,-0.2679,-0.2704,-0.2719,-0.2717,-0.2722,-0.2737,-0.273,-0.2729,-0.2734,-0.2724,-0.2742,-0.2726,-0.2713,-0.2686,-0.2718,-0.2705,-0.2706,-0.2686,-0.2685,-0.2685,-0.2684,0,0,-0.2543,-0.2606,-0.2607,-0.2623,-0.267,-0.2688,-0.2725,-0.2754,-0.2769,-0.2777,-0.2792,-0.2801,-0.2789,-0.2788,-0.2777,-0.2776,-0.2785,-0.2752,-0.2751,-0.2739,-0.2769,-0.2703,-0.2697,-0.2773,-0.2773,-0.2774,-0.2756,0,-0.254,-0.258,-0.2617,-0.2653,-0.2675,-0.2713,-0.2748,-0.2779,-0.2798,-0.2819,-0.2821,-0.283,-0.2813,-0.2809,-0.2809,-0.2794,-0.2788,-0.279,-0.2744,-0.2743,-0.2677,-0.2696,-0.2586,-0.2556,-0.2756,-0.2756,-0.2756,0,-0.2525,-0.256,-0.2595,-0.266,-0.2673,-0.2699,-0.2751,-0.2784,-0.2831,-0.2845,-0.2861,-0.2862,-0.2872,-0.2846,-0.2832,-0.2833,-0.2803,-0.2787,-0.2785,-0.2706,-0.2678,-0.2556,-0.2549,-0.2524,-0.2757,-0.2757,-0.2756,0,-0.247,-0.2537,-0.2562,-0.2585,-0.2663,-0.2684,-0.2723,-0.278,-0.2806,-0.2855,-0.287,-0.2889,-0.2883,-0.2867,-0.2834,-0.2833,-0.281,-0.2802,-0.2714,-0.271,-0.2597,-0.2581,-0.2553,-0.2782,-0.2782,-0.2782,-0.2782,0,-0.2441,-0.2457,-0.2537,-0.255,-0.2578,-0.2651,-0.2682,-0.2728,-0.2791,-0.2816,-0.2865,-0.2877,-0.2885,-0.2875,-0.2847,-0.2779,-0.2815,-0.2718,-0.27,-0.261,-0.2596,-0.2554,-0.2568,-0.2781,-0.2781,-0.2781,-0.2782,0,-0.2359,-0.2418,-0.2445,-0.2526,-0.2548,-0.2562,-0.2642,-0.2666,-0.2742,-0.2777,-0.2791,-0.2859,-0.2853,-0.285,-0.2825,-0.2776,-0.2677,-0.2695,-0.2589,-0.2557,-0.2446,-0.2467,-0.24,-0.2331,-0.2601,-0.2599,-0.2597,0,-0.2315,-0.2322,-0.2396,-0.2407,-0.2436,-0.2479,-0.2507,-0.2611,-0.2646,-0.2753,-0.276,-0.2794,-0.2793,-0.2749,-0.2689,-0.2629,-0.2605,-0.2476,-0.2451,-0.2423,-0.2433,-0.2436,-0.2384,-0.2325,-0.2322,-0.2319,-0.2316,0,-0.2219,-0.2243,-0.2267,-0.2294,-0.2322,-0.2358,-0.2415,-0.2441,-0.2564,-0.2602,-0.2655,-0.2672,-0.267,-0.2575,-0.2509,-0.2453,-0.2405,-0.2412,-0.2408,-0.2234,-0.221,-0.214,-0.2365,-0.229,-0.2293,-0.2295,-0.2296,-0.2297,-0.2124,-0.2113,-0.2145,-0.2154,-0.2188,-0.2209,-0.2196,-0.2281,-0.2315,-0.2362,-0.2477,-0.2478,-0.245,-0.2353,-0.23,-0.2169,-0.2225,-0.2091,-0.2125,-0.2137,-0.2045,-0.2212,-0.2102,-0.2103,-0.2104,-0.2105,-0.2106,0,-0.1995,-0.1999,-0.2003,-0.2013,-0.199,-0.206,-0.2103,-0.2073,-0.2065,-0.2171,-0.2197,-0.222,-0.2116,-0.2108,-0.2004,-0.1908,-0.1855,-0.186,-0.1844,-0.1808,-0.1965,-0.1927,-0.1742,-0.1742,-0.1742,-0.1742,-0.1742,-0.1742,-0.193,-0.1884,-0.1887,-0.1803,-0.1807,-0.1738,-0.173,-0.1718,-0.176,-0.1781,-0.1855,-0.1965,-0.198,-0.2025,-0.1884,-0.1784,-0.1729,-0.1667,-0.17,-0.1831,-0.1855,-0.1879,-0.1845,-0.1647,-0.1647,-0.1462,-0.1461,-0.146]},{"header":{"parameterUnit":"m.s-1","parameterCategory":2,"la1":30.2991,"la2":30.254,"lo1":-89.0895,"lo2":-89.0444,"dy":0.0017,"dx":0.0017,"nx":28,"ny":28,"refTime":"2025-01-13T03:00:00:Z","depth":"0","parameterNumber":3,"parameterNumberName":"V-component_of_CURRENTS"},"data":[0,0,0,0,0,0,0,0,0,0,0,0,0,0,0,0,0,0,0,0,0,0,0,0,0,0,0,0,0,0,0,0,0,0,0,0,0,0,0,0,0,0,0,0,0,0,0,0,0,0,0,0,0,0,0,0,0,0,-0.0487,-0.0487,0,-0.039,-0.0389,-0.0388,-0.0326,-0.0326,-0.0326,-0.0325,-0.0204,-0.0201,-0.0198,0,0,0,0,0,0,0,0,0,0,0,0,0,-0.0544,-0.0544,-0.0488,-0.0487,-0.0485,-0.039,-0.0389,-0.0387,-0.0326,-0.0326,-0.0326,-0.0325,-0.0205,-0.0201,-0.0198,0,0,0,0,0,0,0,0,0,0,0,0,0,-0.0489,-0.0544,-0.0488,-0.0445,-0.044,-0.0391,-0.0389,-0.0387,-0.0326,-0.0326,-0.0325,-0.0325,-0.0206,-0.0202,-0.0197,-0.0174,0,0,-0.0183,-0.0181,0,0,0,0,0,0,0,0,-0.0492,-0.0487,-0.0452,-0.0448,-0.0442,-0.0372,-0.0364,-0.0315,-0.0326,-0.0367,-0.0325,-0.0325,-0.0259,-0.025,-0.023,-0.0168,-0.0163,-0.0183,-0.018,-0.0178,-0.0177,0,0,0,0,0,0,0,-0.0496,-0.049,-0.0447,-0.0451,-0.0445,-0.0405,-0.0397,-0.0354,-0.0314,-0.0364,-0.0359,-0.0352,-0.0256,-0.0235,-0.0227,-0.0161,-0.0183,-0.0179,-0.0176,-0.0174,-0.0075,-0.0075,0,0,0,0,0,0,-0.0516,-0.0494,-0.045,-0.0444,-0.0469,-0.0404,-0.0395,-0.0393,-0.0315,-0.0303,-0.0352,-0.0349,-0.0243,-0.0232,-0.0222,-0.0195,-0.0178,-0.0174,-0.0171,-0.0075,-0.0075,-0.0075,0,0,0,0,0,0,-0.0518,-0.0514,-0.0454,-0.0468,-0.0458,-0.0404,-0.0401,-0.0391,-0.0371,-0.0307,-0.0294,-0.0343,-0.0242,-0.0229,-0.0188,-0.019,-0.0172,-0.0167,-0.0075,-0.0075,-0.0075,-0.0139,0,0,0,0,0,0,-0.052,-0.0515,-0.0519,-0.047,-0.0458,-0.0431,-0.0402,-0.039,-0.0367,-0.0363,-0.0294,-0.0283,-0.0241,-0.0195,-0.0184,-0.0184,-0.0164,-0.0075,-0.0075,-0.0075,-0.0136,-0.0141,-0.0145,0,0,0,0,0,-0.0523,-0.053,-0.052,-0.0515,-0.0466,-0.0431,-0.0421,-0.038,-0.0367,-0.036,-0.0316,-0.0285,-0.0189,-0.0192,-0.0178,-0.0177,-0.0074,-0.0075,-0.0075,-0.0134,-0.014,-0.0145,0,0,0,0,0,0,-0.0551,-0.0523,-0.0511,-0.0508,-0.0477,-0.0422,-0.0412,-0.0386,-0.0345,-0.0342,-0.0283,-0.0268,-0.0234,-0.0197,-0.0203,-0.0149,-0.0128,-0.0125,-0.0177,-0.0182,-0.0186,-0.0201,-0.016,0,0,0,0,0,-0.0563,-0.0564,-0.0525,-0.0523,-0.0511,-0.0464,-0.0446,-0.042,-0.0378,-0.0359,-0.0312,-0.0265,-0.0224,-0.0198,-0.0157,-0.0125,-0.0086,-0.0116,-0.012,-0.0124,-0.0127,-0.007,-0.0069,-0.0076,-0.0076,-0.0076,0,0,-0.0573,-0.0558,-0.0558,-0.053,-0.0502,-0.0491,-0.0452,-0.043,-0.0417,-0.0353,-0.0322,-0.0278,-0.022,-0.0186,-0.0167,-0.0155,-0.0103,-0.0125,-0.0129,-0.0129,-0.007,-0.0069,-0.0069,-0.0076,-0.0076,-0.0076,0,0,-0.0597,-0.0583,-0.0593,-0.0573,-0.0542,-0.0513,-0.0512,-0.0462,-0.0437,-0.0403,-0.0357,-0.0316,-0.0252,-0.0209,-0.018,-0.0182,-0.013,-0.0171,-0.0199,-0.0144,-0.0143,-0.0142,-0.0097,-0.0092,-0.017,-0.0171,-0.0171,0,-0.0612,-0.0621,-0.0588,-0.0591,-0.0581,-0.0529,-0.0534,-0.0499,-0.0442,-0.0422,-0.0404,-0.0309,-0.0262,-0.0215,-0.0217,-0.0191,-0.0156,-0.0186,-0.015,-0.0148,-0.0145,-0.01,-0.0093,-0.0174,-0.0173,-0.0173,-0.0173,0,-0.0642,-0.0648,-0.0651,-0.0642,-0.0624,-0.0619,-0.0574,-0.055,-0.0517,-0.0477,-0.0426,-0.0358,-0.03,-0.0281,-0.0248,-0.0209,-0.0188,-0.0165,-0.014,-0.0148,-0.01,-0.0091,-0.0178,-0.0177,-0.0176,-0.0175,0,0,-0.0678,-0.0676,-0.0677,-0.0688,-0.0654,-0.0646,-0.0623,-0.0588,-0.0573,-0.0511,-0.0483,-0.041,-0.0368,-0.0333,-0.0282,-0.0234,-0.0188,-0.0199,-0.0195,-0.0161,-0.0072,-0.0021,-0.0006,-0.0158,-0.0157,-0.0156,-0.0049,0,-0.0712,-0.0744,-0.0724,-0.0746,-0.0758,-0.0709,-0.0694,-0.0652,-0.0604,-0.0561,-0.048,-0.0435,-0.0388,-0.0363,-0.0307,-0.0212,-0.0167,-0.022,-0.0064,-0.006,-0.0017,0.0005,0.0033,0.0135,-0.004,-0.0038,-0.0037,0,-0.0748,-0.0768,-0.0803,-0.0809,-0.0808,-0.0807,-0.0777,-0.0755,-0.0677,-0.0637,-0.0569,-0.0501,-0.0415,-0.0382,-0.0224,-0.026,-0.0178,-0.0108,-0.0101,-0.0025,0.0008,0.0118,0.0158,0.0304,-0.0023,-0.0024,-0.0025,0,-0.0801,-0.0821,-0.0857,-0.0859,-0.0852,-0.0852,-0.084,-0.078,-0.0763,-0.0682,-0.0655,-0.054,-0.0479,-0.0357,-0.0204,-0.0214,-0.0031,-0.0022,0.0099,0.0103,0.0173,0.0182,0.037,0.0076,0.0076,0.0076,0.0075,0,-0.085,-0.0877,-0.0888,-0.0909,-0.0944,-0.0912,-0.0925,-0.0888,-0.0832,-0.0811,-0.0701,-0.065,-0.0471,-0.034,-0.0211,-0.0016,-0.0029,0.0102,0.0141,0.0151,0.0156,0.0324,0.0373,0.008,0.0079,0.0078,0.0077,0,-0.0902,-0.0909,-0.0954,-0.0968,-0.0973,-0.0998,-0.0993,-0.0995,-0.0931,-0.0895,-0.0873,-0.0722,-0.054,-0.0353,-0.0141,-0.0021,0.0247,0.0215,0.0212,0.0249,0.0492,0.0534,0.0754,0.0828,0.0367,0.0369,0.0371,0,-0.0931,-0.0961,-0.1007,-0.1041,-0.1051,-0.1079,-0.1095,-0.1051,-0.1045,-0.0935,-0.0921,-0.0741,-0.06,-0.0258,-0.0009,0.0246,0.0343,0.0405,0.0394,0.0525,0.0601,0.063,0.0676,0.0459,0.0462,0.0464,0.0465,0,-0.0985,-0.1001,-0.1041,-0.1115,-0.1152,-0.119,-0.1204,-0.1215,-0.1149,-0.1092,-0.0982,-0.0858,-0.0509,-0.0192,0.015,0.0302,0.0518,0.0451,0.0598,0.0704,0.0737,0.0819,0.0358,0.0482,0.048,0.0479,0.0478,0.0477,-0.1017,-0.1064,-0.1119,-0.1185,-0.1235,-0.1284,-0.131,-0.13,-0.1276,-0.1173,-0.1044,-0.0825,-0.0359,0.014,0.0323,0.0717,0.0673,0.0822,0.0866,0.0886,0.0957,0.0528,0.0687,0.0687,0.0686,0.0686,0.0686,0,-0.1054,-0.1109,-0.1184,-0.1262,-0.1327,-0.1332,-0.1368,-0.1368,-0.1336,-0.1196,-0.1056,-0.0556,-0.0089,0.0345,0.0904,0.1114,0.1148,0.1217,0.1268,0.1296,0.0939,0.0944,0.1152,0.1151,0.1151,0.1151,0.1151,0.1151,-0.1075,-0.1155,-0.1199,-0.1316,-0.137,-0.1429,-0.1447,-0.142,-0.1333,-0.1093,-0.0817,-0.06,0.0044,0.094,0.1458,0.1507,0.1656,0.1655,0.1734,0.1488,0.1454,0.1421,0.144,0.1749,0.175,0.2074,0.2077,0.208]}],[{"header":{"parameterUnit":"m.s-1","parameterCategory":2,"la1":30.2991,"la2":30.254,"lo1":-89.0895,"lo2":-89.0444,"dy":0.0017,"dx":0.0017,"nx":28,"ny":28,"refTime":"2025-01-13T03:00:00:Z","depth":"2","parameterNumber":2,"parameterNumberName":"U-component_of_CURRENTS"},"data":[0,0,0,0,0,0,0,0,0,0,0,0,0,0,0,0,0,0,0,0,0,0,0,0,0,0,0,0,0,0,0,0,0,0,0,0,0,0,0,0,0,0,0,0,0,0,0,0,0,0,0,0,0,0,0,0,0,0,-0.2312,-0.2312,0,-0.2323,-0.2323,-0.2323,-0.2297,-0.2296,-0.2296,-0.2295,-0.2281,-0.2281,-0.2281,0,0,0,0,0,0,0,0,0,0,0,0,0,-0.2249,-0.2251,-0.2311,-0.2312,-0.2312,-0.2323,-0.2323,-0.2323,-0.2297,-0.2296,-0.2296,-0.2295,-0.2281,-0.2281,-0.2281,0,0,0,0,0,0,0,0,0,0,0,0,0,-0.2268,-0.2251,-0.2311,-0.2302,-0.2302,-0.2323,-0.2323,-0.2323,-0.2297,-0.2296,-0.2295,-0.2295,-0.2281,-0.2281,-0.2281,-0.2302,0,0,-0.2282,-0.2282,0,0,0,0,0,0,0,0,-0.2267,-0.227,-0.2303,-0.2303,-0.2302,-0.2309,-0.2296,-0.2315,-0.2298,-0.2297,-0.2295,-0.2294,-0.229,-0.229,-0.2291,-0.2302,-0.2301,-0.2282,-0.2283,-0.2283,-0.2283,0,0,0,0,0,0,0,-0.2266,-0.227,-0.2314,-0.2304,-0.2303,-0.2291,-0.2293,-0.2299,-0.2297,-0.2297,-0.2295,-0.23,-0.2289,-0.2291,-0.2291,-0.2301,-0.2282,-0.2283,-0.2283,-0.2283,-0.2332,-0.2333,0,0,0,0,0,0,-0.2271,-0.2269,-0.2314,-0.2314,-0.2284,-0.2293,-0.2295,-0.2306,-0.2297,-0.2296,-0.2301,-0.2299,-0.2291,-0.229,-0.229,-0.2321,-0.2283,-0.2283,-0.2283,-0.2331,-0.2332,-0.2333,0,0,0,0,0,0,-0.227,-0.2275,-0.2313,-0.2293,-0.2297,-0.2296,-0.2309,-0.2307,-0.2309,-0.2301,-0.2298,-0.2305,-0.229,-0.229,-0.2302,-0.232,-0.2283,-0.2283,-0.2329,-0.2331,-0.2333,-0.238,0,0,0,0,0,0,-0.2268,-0.2275,-0.2283,-0.2294,-0.2298,-0.2333,-0.231,-0.2308,-0.2315,-0.2312,-0.2304,-0.2301,-0.2289,-0.2301,-0.2302,-0.232,-0.2284,-0.2328,-0.233,-0.2332,-0.2377,-0.2383,-0.2388,0,0,0,0,0,-0.2266,-0.2287,-0.2283,-0.2289,-0.231,-0.2334,-0.2336,-0.233,-0.2316,-0.2326,-0.2318,-0.2301,-0.2315,-0.2303,-0.2303,-0.2322,-0.2327,-0.233,-0.2332,-0.2374,-0.2381,-0.2388,0,0,0,0,0,0,-0.227,-0.2287,-0.2283,-0.2309,-0.2323,-0.2331,-0.234,-0.2336,-0.2338,-0.2333,-0.2317,-0.2315,-0.2333,-0.2324,-0.2311,-0.2343,-0.2318,-0.2321,-0.235,-0.2357,-0.2362,-0.236,-0.2284,0,0,0,0,0,-0.2274,-0.2288,-0.2306,-0.2325,-0.2335,-0.2337,-0.2344,-0.2343,-0.2348,-0.2348,-0.2342,-0.2339,-0.2345,-0.2347,-0.235,-0.237,-0.2356,-0.2382,-0.2388,-0.2393,-0.2392,-0.2389,-0.2394,-0.2342,-0.2342,-0.2341,0,0,-0.2279,-0.2291,-0.2298,-0.2325,-0.2333,-0.2353,-0.2339,-0.2358,-0.2372,-0.2347,-0.2362,-0.236,-0.2355,-0.2375,-0.2382,-0.2369,-0.2402,-0.2396,-0.24,-0.2397,-0.2393,-0.2397,-0.2402,-0.2343,-0.2343,-0.2343,0,0,-0.2292,-0.231,-0.2321,-0.234,-0.2359,-0.2368,-0.2376,-0.2391,-0.2394,-0.2414,-0.2399,-0.2408,-0.2417,-0.2417,-0.2418,-0.2459,-0.2433,-0.2461,-0.2487,-0.2485,-0.2489,-0.2492,-0.2486,-0.2489,-0.2463,-0.2463,-0.2463,0,-0.2293,-0.2314,-0.233,-0.235,-0.2366,-0.2377,-0.2397,-0.2412,-0.2426,-0.2434,-0.2424,-0.2441,-0.2437,-0.2458,-0.2471,-0.2471,-0.2462,-0.2461,-0.2491,-0.2494,-0.2497,-0.249,-0.2492,-0.2466,-0.2465,-0.2465,-0.2465,0,-0.231,-0.2332,-0.2346,-0.2372,-0.2396,-0.2419,-0.2445,-0.2465,-0.247,-0.2479,-0.2502,-0.25,-0.2505,-0.2512,-0.2504,-0.2526,-0.2512,-0.2499,-0.2472,-0.2505,-0.2496,-0.2497,-0.2469,-0.2468,-0.2468,-0.2467,0,0,-0.2286,-0.2344,-0.2346,-0.2362,-0.2409,-0.2428,-0.2469,-0.2501,-0.252,-0.2536,-0.2557,-0.2572,-0.2565,-0.2565,-0.2559,-0.256,-0.2575,-0.254,-0.2538,-0.253,-0.2567,-0.2498,-0.2492,-0.2565,-0.2565,-0.2566,-0.2555,0,-0.2285,-0.2323,-0.2357,-0.2395,-0.2417,-0.2457,-0.2493,-0.2528,-0.2552,-0.2579,-0.2587,-0.2603,-0.2588,-0.259,-0.2592,-0.2581,-0.2579,-0.2578,-0.254,-0.2539,-0.247,-0.2492,-0.2298,-0.2267,-0.2556,-0.2556,-0.2556,0,-0.2273,-0.2305,-0.2342,-0.2404,-0.2418,-0.2447,-0.2503,-0.2538,-0.259,-0.2609,-0.263,-0.2636,-0.2651,-0.2628,-0.2621,-0.262,-0.2597,-0.2584,-0.2583,-0.25,-0.2471,-0.228,-0.2257,-0.2558,-0.2558,-0.2558,-0.2557,0,-0.2224,-0.2288,-0.2315,-0.2337,-0.2414,-0.2439,-0.2478,-0.2539,-0.2566,-0.2623,-0.2641,-0.2665,-0.2666,-0.2654,-0.2627,-0.2626,-0.261,-0.2602,-0.2518,-0.2513,-0.233,-0.2308,-0.2589,-0.2589,-0.2589,-0.2589,-0.2589,0,-0.22,-0.2218,-0.2294,-0.2309,-0.2341,-0.2412,-0.2448,-0.2495,-0.2561,-0.2588,-0.2642,-0.2655,-0.2671,-0.2664,-0.2641,-0.2578,-0.2616,-0.2522,-0.2505,-0.2342,-0.2322,-0.2558,-0.2554,-0.2589,-0.2589,-0.2589,-0.2589,0,-0.2127,-0.2183,-0.2212,-0.2292,-0.2315,-0.2334,-0.2415,-0.2441,-0.2519,-0.2556,-0.2573,-0.2642,-0.264,-0.2642,-0.2625,-0.2577,-0.2539,-0.2504,-0.2313,-0.2273,-0.2443,-0.2443,-0.2417,-0.2414,-0.2412,-0.2411,-0.2409,0,-0.2088,-0.2096,-0.217,-0.2184,-0.2216,-0.2262,-0.2291,-0.2393,-0.2427,-0.2533,-0.2539,-0.258,-0.2573,-0.2537,-0.2477,-0.2421,-0.2483,-0.2199,-0.2161,-0.2439,-0.2426,-0.2428,-0.243,-0.194,-0.1935,-0.1931,-0.1927,0,-0.2001,-0.2029,-0.2053,-0.2082,-0.2113,-0.2148,-0.2205,-0.2228,-0.2345,-0.2382,-0.2429,-0.2442,-0.2439,-0.23,-0.2242,-0.218,-0.2198,-0.2111,-0.2438,-0.202,-0.199,-0.1977,-0.1994,-0.1889,-0.1893,-0.1896,-0.1898,-0.1899,-0.1918,-0.1911,-0.1943,-0.1955,-0.199,-0.2008,-0.1994,-0.207,-0.2098,-0.2131,-0.2242,-0.2201,-0.2189,-0.2013,-0.1913,-0.1836,-0.1991,-0.1878,-0.189,-0.1908,-0.1861,-0.1829,-0.1689,-0.1691,-0.1694,-0.1696,-0.1697,0,-0.1801,-0.1807,-0.1813,-0.1825,-0.1804,-0.1873,-0.1906,-0.1868,-0.1851,-0.1922,-0.1936,-0.1751,-0.1666,-0.1669,-0.1503,-0.1466,-0.1446,-0.1387,-0.1355,-0.1394,-0.1428,-0.1356,-0.1051,-0.1049,-0.1047,-0.1046,0,0,-0.1742,-0.1702,-0.1703,-0.1626,-0.1633,-0.1566,-0.1554,-0.1525,-0.1536,-0.1481,-0.1468,-0.1597,-0.1633,-0.1348,-0.1272,-0.1141,-0.1255,-0.1078,-0.1597,-0.1598,-0.163,-0.1709,-0.1642,0,0,0,0,0]},{"header":{"parameterUnit":"m.s-1","parameterCategory":2,"la1":30.2991,"la2":30.254,"lo1":-89.0895,"lo2":-89.0444,"dy":0.0017,"dx":0.0017,"nx":28,"ny":28,"refTime":"2025-01-13T03:00:00:Z","depth":"2","parameterNumber":3,"parameterNumberName":"V-component_of_CURRENTS"},"data":[0,0,0,0,0,0,0,0,0,0,0,0,0,0,0,0,0,0,0,0,0,0,0,0,0,0,0,0,0,0,0,0,0,0,0,0,0,0,0,0,0,0,0,0,0,0,0,0,0,0,0,0,0,0,0,0,0,0,-0.0301,-0.03,0,-0.0216,-0.0215,-0.0214,-0.0159,-0.0159,-0.0158,-0.0158,-0.0048,-0.0045,-0.0042,0,0,0,0,0,0,0,0,0,0,0,0,0,-0.0341,-0.034,-0.0301,-0.03,-0.0299,-0.0216,-0.0215,-0.0213,-0.0159,-0.0159,-0.0158,-0.0158,-0.0049,-0.0046,-0.0042,0,0,0,0,0,0,0,0,0,0,0,0,0,-0.0294,-0.034,-0.0301,-0.0263,-0.0259,-0.0216,-0.0215,-0.0213,-0.0159,-0.0159,-0.0158,-0.0158,-0.005,-0.0046,-0.0042,-0.002,0,0,-0.0029,-0.0027,0,0,0,0,0,0,0,0,-0.0297,-0.0293,-0.027,-0.0266,-0.0261,-0.02,-0.0188,-0.0148,-0.0159,-0.0195,-0.0158,-0.0158,-0.0098,-0.009,-0.0072,-0.0015,-0.001,-0.0029,-0.0026,-0.0024,-0.0023,0,0,0,0,0,0,0,-0.0301,-0.0296,-0.0265,-0.0269,-0.0264,-0.0225,-0.0219,-0.018,-0.0146,-0.0191,-0.0188,-0.0182,-0.0095,-0.0076,-0.0069,-0.0009,-0.0029,-0.0025,-0.0022,-0.0021,0.007,0.007,0,0,0,0,0,0,-0.032,-0.0299,-0.0268,-0.0263,-0.0282,-0.0225,-0.0218,-0.0218,-0.0147,-0.0137,-0.0182,-0.018,-0.0083,-0.0073,-0.0064,-0.0041,-0.0024,-0.002,-0.0018,0.007,0.007,0.007,0,0,0,0,0,0,-0.0321,-0.0318,-0.0271,-0.028,-0.0272,-0.0226,-0.0225,-0.0216,-0.02,-0.0141,-0.013,-0.0176,-0.0082,-0.007,-0.0034,-0.0036,-0.0018,-0.0015,0.007,0.007,0.007,0.0009,0,0,0,0,0,0,-0.0323,-0.0319,-0.0325,-0.0282,-0.0272,-0.0253,-0.0225,-0.0215,-0.0197,-0.0193,-0.0132,-0.0121,-0.0081,-0.0041,-0.003,-0.003,-0.0011,0.007,0.007,0.007,0.0011,0.0007,0.0003,0,0,0,0,0,-0.0324,-0.0334,-0.0326,-0.0322,-0.0283,-0.0253,-0.0244,-0.0209,-0.0198,-0.0192,-0.0152,-0.0123,-0.0034,-0.0038,-0.0025,-0.0024,0.0071,0.007,0.007,0.0013,0.0008,0.0003,0,0,0,0,0,0,-0.0352,-0.0328,-0.0319,-0.032,-0.0293,-0.0245,-0.0238,-0.0216,-0.0179,-0.0177,-0.0122,-0.0108,-0.0078,-0.0043,-0.0048,0.0001,0.0022,0.0024,-0.0026,-0.003,-0.0034,-0.0047,-0.0008,0,0,0,0,0,-0.0364,-0.0367,-0.0334,-0.0336,-0.0326,-0.0285,-0.0269,-0.0247,-0.0209,-0.0193,-0.015,-0.0106,-0.0068,-0.0045,-0.0006,0.0023,0.0059,0.0031,0.0027,0.0023,0.0021,0.0075,0.0076,0.0069,0.0069,0.0069,0,0,-0.0375,-0.0363,-0.0365,-0.0342,-0.0319,-0.031,-0.0274,-0.0257,-0.0246,-0.0187,-0.016,-0.012,-0.0065,-0.0033,-0.0017,-0.0005,0.0043,0.0023,0.0019,0.0019,0.0075,0.0076,0.0076,0.0069,0.0069,0.0069,0,0,-0.0401,-0.039,-0.0402,-0.0384,-0.0359,-0.0332,-0.0333,-0.029,-0.0267,-0.0238,-0.0194,-0.0156,-0.0098,-0.0056,-0.0028,-0.0031,0.0017,-0.0022,-0.0048,0.0005,0.0006,0.0007,0.0046,0.0052,-0.0021,-0.0021,-0.0021,0,-0.0417,-0.0427,-0.0399,-0.0403,-0.0395,-0.0349,-0.0355,-0.0323,-0.0273,-0.0255,-0.024,-0.0151,-0.0107,-0.0062,-0.0064,-0.004,-0.0007,-0.0035,-0.0001,0.0001,0.0004,0.0044,0.0051,-0.0024,-0.0023,-0.0023,-0.0023,0,-0.0448,-0.0456,-0.046,-0.0454,-0.0438,-0.0436,-0.0395,-0.0374,-0.0345,-0.0308,-0.0261,-0.0197,-0.0144,-0.0125,-0.0094,-0.0056,-0.0039,-0.0016,0.0008,0.0,0.0044,0.0052,-0.0028,-0.0027,-0.0026,-0.0025,0,0,-0.0486,-0.0485,-0.0487,-0.0498,-0.0468,-0.0462,-0.0442,-0.0409,-0.0397,-0.034,-0.0315,-0.0246,-0.0208,-0.0174,-0.0125,-0.008,-0.0038,-0.0048,-0.0044,-0.0014,0.007,0.0108,0.0121,-0.0009,-0.0008,-0.0007,0.009,0,-0.0521,-0.0553,-0.0533,-0.0556,-0.0568,-0.0523,-0.051,-0.0472,-0.0428,-0.0389,-0.0312,-0.0271,-0.0226,-0.0204,-0.015,-0.0061,-0.0018,-0.0067,0.0078,0.0082,0.0113,0.0131,0.0103,0.019,0.0098,0.01,0.0101,0,-0.0557,-0.0576,-0.0611,-0.0617,-0.0617,-0.0618,-0.0591,-0.0572,-0.0499,-0.0463,-0.0399,-0.0336,-0.0255,-0.0222,-0.0074,-0.0107,-0.003,0.0037,0.0043,0.0106,0.0136,0.0186,0.0208,0.0115,0.0114,0.0113,0.0112,0,-0.0608,-0.0629,-0.0664,-0.0666,-0.066,-0.0663,-0.0653,-0.0597,-0.0583,-0.0509,-0.0486,-0.0376,-0.032,-0.0204,-0.006,-0.0067,0.0102,0.0114,0.022,0.0223,0.0243,0.0246,0.0208,0.0208,0.0208,0.0208,0.0208,0,-0.0656,-0.0683,-0.0694,-0.0715,-0.0751,-0.0721,-0.0737,-0.0703,-0.0654,-0.0636,-0.0532,-0.0488,-0.0313,-0.0192,-0.0069,0.0109,0.0102,0.0222,0.0257,0.022,0.022,0.019,0.0187,0.0212,0.0211,0.021,0.0209,0,-0.0706,-0.0713,-0.0758,-0.0773,-0.078,-0.0806,-0.0805,-0.0809,-0.0752,-0.0722,-0.0702,-0.0562,-0.0395,-0.0214,-0.0013,0.01,0.026,0.0318,0.0259,0.0286,0.0344,0.0337,0.0448,0.045,0.0452,0.0454,0.0455,0,-0.0734,-0.0763,-0.081,-0.0845,-0.0857,-0.0887,-0.0905,-0.0865,-0.0862,-0.0766,-0.0755,-0.059,-0.0461,-0.0144,0.0085,0.0323,0.0314,0.0423,0.0411,0.0349,0.0372,0.0361,0.0351,0.0408,0.0409,0.041,0.041,0,-0.0787,-0.0804,-0.0843,-0.0918,-0.0956,-0.0994,-0.1012,-0.1023,-0.0963,-0.0916,-0.0821,-0.0708,-0.0392,-0.0122,0.0193,0.0325,0.0388,0.0446,0.0413,0.0351,0.032,0.0339,0.0329,0.0417,0.0416,0.0415,0.0415,0.0415,-0.0819,-0.0864,-0.0919,-0.0987,-0.1038,-0.1085,-0.1112,-0.1105,-0.1086,-0.0992,-0.088,-0.0682,-0.0411,0.0043,0.0265,0.0475,0.0471,0.0519,0.0513,0.0507,0.0485,0.0459,0.0577,0.0577,0.0577,0.0578,0.0578,0,-0.0855,-0.091,-0.0983,-0.106,-0.1124,-0.1133,-0.1169,-0.1165,-0.1138,-0.1013,-0.0888,-0.0581,-0.0264,0.002,0.036,0.0559,0.0536,0.0585,0.0512,0.0506,0.05,0.0473,0.0564,0.0565,0.0565,0.0566,0,0,-0.0875,-0.0953,-0.0995,-0.111,-0.1166,-0.1225,-0.1243,-0.121,-0.1129,-0.0999,-0.0838,-0.0617,-0.0262,-0.0028,0.0227,0.0405,0.0398,0.0419,0.041,0.0287,0.0279,0.0446,0.0397,0,0,0,0,0]}],[{"header":{"parameterUnit":"m.s-1","parameterCategory":2,"la1":30.2991,"la2":30.254,"lo1":-89.0895,"lo2":-89.0444,"dy":0.0017,"dx":0.0017,"nx":28,"ny":28,"refTime":"2025-01-13T03:00:00:Z","depth":"4","parameterNumber":2,"parameterNumberName":"U-component_of_CURRENTS"},"data":[0,0,0,0,0,0,0,0,0,0,0,0,0,0,0,0,0,0,0,0,0,0,0,0,0,0,0,0,0,0,0,0,0,0,0,0,0,0,0,0,0,0,0,0,0,0,0,0,0,0,0,0,0,0,0,0,0,0,-0.1581,-0.1582,0,-0.1636,-0.1636,-0.1637,-0.1671,-0.1672,-0.1672,-0.1672,-0.1733,-0.1734,-0.1736,0,0,0,0,0,0,0,0,0,0,0,0,0,-0.1502,-0.1503,-0.1581,-0.1582,-0.1583,-0.1636,-0.1636,-0.1637,-0.1671,-0.1672,-0.1672,-0.1673,-0.1733,-0.1734,-0.1736,0,0,0,0,0,0,0,0,0,0,0,0,0,-0.1543,-0.1503,-0.1581,-0.1608,-0.1611,-0.1635,-0.1636,-0.1637,-0.1671,-0.1672,-0.1672,-0.1673,-0.1732,-0.1734,-0.1736,-0.1737,0,0,-0.1742,-0.1743,0,0,0,0,0,0,0,0,-0.154,-0.1545,-0.1603,-0.1606,-0.161,-0.1649,-0.1631,-0.1671,-0.1671,-0.1646,-0.1672,-0.1673,-0.1706,-0.171,-0.1717,-0.174,-0.1743,-0.1742,-0.1743,-0.1744,-0.1745,0,0,0,0,0,0,0,-0.1537,-0.1543,-0.1601,-0.1604,-0.1608,-0.1615,-0.1621,-0.1638,-0.1671,-0.1649,-0.1652,-0.166,-0.1708,-0.1715,-0.1719,-0.1743,-0.1742,-0.1744,-0.1745,-0.1746,-0.1845,-0.1846,0,0,0,0,0,0,-0.1534,-0.1541,-0.16,-0.1603,-0.1577,-0.1616,-0.1623,-0.1634,-0.1671,-0.1678,-0.166,-0.1662,-0.1711,-0.1716,-0.1721,-0.1796,-0.1744,-0.1746,-0.1747,-0.1843,-0.1845,-0.1847,0,0,0,0,0,0,-0.1532,-0.1539,-0.1597,-0.1574,-0.1582,-0.1617,-0.1629,-0.1635,-0.1669,-0.168,-0.1686,-0.1691,-0.1712,-0.1718,-0.1763,-0.1796,-0.1747,-0.1748,-0.1842,-0.1844,-0.1846,-0.19,0,0,0,0,0,0,-0.153,-0.1538,-0.1557,-0.1574,-0.1584,-0.1632,-0.1629,-0.1636,-0.1672,-0.1676,-0.1708,-0.1713,-0.1713,-0.1761,-0.1765,-0.1798,-0.175,-0.184,-0.1843,-0.1845,-0.1897,-0.1904,-0.1911,0,0,0,0,0,-0.1527,-0.1549,-0.1557,-0.1565,-0.1605,-0.1634,-0.164,-0.1664,-0.1674,-0.1696,-0.1719,-0.1713,-0.1781,-0.1764,-0.1769,-0.1802,-0.1838,-0.1842,-0.1845,-0.1894,-0.1903,-0.191,0,0,0,0,0,0,-0.1531,-0.1556,-0.1565,-0.1596,-0.1622,-0.1641,-0.1668,-0.168,-0.1715,-0.1727,-0.1733,-0.174,-0.1791,-0.179,-0.177,-0.1839,-0.1809,-0.1813,-0.1844,-0.1853,-0.1859,-0.1851,-0.1752,0,0,0,0,0,-0.1538,-0.1561,-0.1584,-0.1613,-0.1628,-0.1652,-0.1672,-0.1689,-0.1715,-0.1733,-0.1756,-0.178,-0.1804,-0.1824,-0.1843,-0.1882,-0.1866,-0.1907,-0.1914,-0.192,-0.1917,-0.1922,-0.1928,-0.1858,-0.1858,-0.1858,0,0,-0.1549,-0.1565,-0.158,-0.1615,-0.1638,-0.1666,-0.1666,-0.1706,-0.1737,-0.1733,-0.1792,-0.1808,-0.182,-0.1864,-0.1887,-0.1872,-0.1933,-0.1924,-0.1929,-0.1923,-0.1926,-0.1932,-0.1938,-0.186,-0.1859,-0.1859,0,0,-0.1567,-0.1597,-0.1616,-0.1642,-0.1681,-0.1697,-0.1715,-0.1751,-0.1779,-0.1828,-0.1834,-0.1869,-0.1912,-0.1924,-0.1934,-0.199,-0.1969,-0.2004,-0.2035,-0.204,-0.2045,-0.205,-0.2042,-0.2045,-0.2008,-0.2008,-0.2008,0,-0.158,-0.1605,-0.1629,-0.1655,-0.1683,-0.1714,-0.1745,-0.1776,-0.1826,-0.185,-0.1858,-0.1922,-0.1937,-0.1977,-0.2,-0.2006,-0.1999,-0.2002,-0.2048,-0.2052,-0.2055,-0.2046,-0.2049,-0.2011,-0.2011,-0.2011,-0.201,0,-0.1598,-0.1635,-0.1654,-0.1694,-0.1729,-0.1765,-0.1807,-0.1851,-0.1888,-0.1912,-0.1973,-0.1993,-0.2025,-0.2042,-0.2041,-0.2081,-0.2065,-0.2054,-0.2023,-0.2066,-0.2053,-0.2055,-0.2016,-0.2014,-0.2014,-0.2013,0,0,-0.1578,-0.1651,-0.166,-0.169,-0.1755,-0.1781,-0.1845,-0.1899,-0.1938,-0.199,-0.2036,-0.2082,-0.2092,-0.2102,-0.2109,-0.2119,-0.2145,-0.2104,-0.2103,-0.2089,-0.2149,-0.2009,-0.1997,-0.2144,-0.2144,-0.2145,-0.213,0,-0.1585,-0.1636,-0.1676,-0.1739,-0.177,-0.1829,-0.1882,-0.1939,-0.1989,-0.2044,-0.2074,-0.2119,-0.2115,-0.2137,-0.2148,-0.2147,-0.2152,-0.2149,-0.2115,-0.2114,-0.1978,-0.1996,-0.2147,-0.2132,-0.2132,-0.2132,-0.2133,0,-0.1575,-0.1616,-0.1675,-0.176,-0.1781,-0.183,-0.1917,-0.1969,-0.2047,-0.2087,-0.2134,-0.2157,-0.2193,-0.2179,-0.2189,-0.2189,-0.2174,-0.2166,-0.2165,-0.2012,-0.1976,-0.208,-0.2136,-0.2135,-0.2135,-0.2135,-0.2135,0,-0.1525,-0.1612,-0.1661,-0.1692,-0.1792,-0.184,-0.1898,-0.1983,-0.2026,-0.2114,-0.2146,-0.2193,-0.2215,-0.2213,-0.2199,-0.2201,-0.2193,-0.219,-0.2047,-0.2038,-0.2145,-0.214,-0.2188,-0.2188,-0.2188,-0.2188,-0.2188,0,-0.1494,-0.1537,-0.1649,-0.1675,-0.1739,-0.1824,-0.1893,-0.1958,-0.2045,-0.2081,-0.216,-0.2175,-0.2225,-0.2225,-0.2209,-0.2121,-0.2197,-0.2044,-0.2021,-0.2169,-0.2168,-0.2146,-0.2141,-0.2187,-0.2188,-0.2188,-0.2188,0,-0.1419,-0.1496,-0.1557,-0.1675,-0.1715,-0.1761,-0.1877,-0.1916,-0.2015,-0.2063,-0.2091,-0.2169,-0.2165,-0.2186,-0.2181,-0.2108,-0.2058,-0.2009,-0.2161,-0.2148,-0.1901,-0.19,-0.1846,-0.1841,-0.1836,-0.1833,-0.183,0,-0.1378,-0.1405,-0.1534,-0.157,-0.1628,-0.1711,-0.1759,-0.1882,-0.1916,-0.2029,-0.203,-0.2079,-0.2109,-0.1982,-0.2027,-0.1976,-0.1953,-0.1912,-0.1908,-0.1881,-0.1865,-0.187,-0.1875,-0.1823,-0.1822,-0.182,-0.1819,0,-0.1295,-0.1356,-0.1407,-0.1478,-0.1543,-0.1601,-0.1681,-0.1691,-0.1814,-0.1924,-0.1909,-0.1901,-0.1894,-0.1882,-0.1852,-0.1819,-0.1932,-0.1867,-0.1876,-0.1872,-0.1852,-0.1842,-0.1851,-0.1804,-0.1806,-0.1808,-0.1809,0,-0.123,-0.1243,-0.1316,-0.1363,-0.1437,-0.1456,-0.1521,-0.1557,-0.1607,-0.1741,-0.1728,-0.1787,-0.187,-0.1799,-0.1772,-0.1726,-0.1703,-0.1641,-0.1662,-0.1679,-0.163,-0.1582,-0.1419,0,0,0,0,0,-0.1153,-0.1154,-0.1191,-0.1238,-0.1303,-0.1344,-0.1447,-0.1516,-0.1637,-0.158,-0.165,-0.1638,-0.1605,-0.1639,-0.1555,-0.1694,-0.1708,-0.1588,-0.1648,-0.172,-0.1738,-0.1694,0,0,0,0,0,0,-0.1104,-0.1134,-0.1145,-0.1113,-0.1119,-0.1176,-0.1235,-0.1327,-0.1306,-0.1436,-0.1427,-0.1525,-0.1519,-0.1622,-0.1516,-0.1525,-0.1525,-0.1637,-0.1632,-0.171,-0.1726,-0.174,-0.1702,0,0,0,0,0]},{"header":{"parameterUnit":"m.s-1","parameterCategory":2,"la1":30.2991,"la2":30.254,"lo1":-89.0895,"lo2":-89.0444,"dy":0.0017,"dx":0.0017,"nx":28,"ny":28,"refTime":"2025-01-13T03:00:00:Z","depth":"4","parameterNumber":3,"parameterNumberName":"V-component_of_CURRENTS"},"data":[0,0,0,0,0,0,0,0,0,0,0,0,0,0,0,0,0,0,0,0,0,0,0,0,0,0,0,0,0,0,0,0,0,0,0,0,0,0,0,0,0,0,0,0,0,0,0,0,0,0,0,0,0,0,0,0,0,0,-0.0152,-0.0152,0,-0.0101,-0.01,-0.01,-0.0061,-0.0061,-0.0061,-0.0061,0.0023,0.0025,0.0027,0,0,0,0,0,0,0,0,0,0,0,0,0,-0.0162,-0.0162,-0.0153,-0.0152,-0.0152,-0.0101,-0.01,-0.0099,-0.0061,-0.0061,-0.0061,-0.0061,0.0023,0.0025,0.0028,0,0,0,0,0,0,0,0,0,0,0,0,0,-0.0138,-0.0163,-0.0153,-0.0128,-0.0125,-0.0101,-0.01,-0.0099,-0.0061,-0.0061,-0.0061,-0.0061,0.0022,0.0025,0.0028,0.0042,0,0,0.0037,0.0039,0,0,0,0,0,0,0,0,-0.0139,-0.0137,-0.0132,-0.013,-0.0127,-0.0089,-0.0073,-0.0051,-0.0062,-0.0084,-0.0061,-0.0061,-0.0013,-0.0007,0.0005,0.0046,0.005,0.0038,0.004,0.0041,0.0042,0,0,0,0,0,0,0,-0.0141,-0.0139,-0.013,-0.0132,-0.0128,-0.0101,-0.0097,-0.0068,-0.0048,-0.0082,-0.0079,-0.0077,-0.0011,0.0002,0.0007,0.0051,0.0038,0.004,0.0042,0.0044,0.0113,0.0113,0,0,0,0,0,0,-0.0154,-0.0141,-0.0132,-0.0129,-0.0135,-0.0101,-0.0097,-0.01,-0.0049,-0.0042,-0.0077,-0.0075,-0.0004,0.0003,0.001,0.0028,0.0041,0.0044,0.0046,0.0113,0.0113,0.0113,0,0,0,0,0,0,-0.0155,-0.0154,-0.0134,-0.0135,-0.013,-0.0102,-0.0105,-0.0099,-0.009,-0.0046,-0.0038,-0.0074,-0.0003,0.0006,0.0032,0.0031,0.0045,0.0048,0.0113,0.0113,0.0113,0.0064,0,0,0,0,0,0,-0.0155,-0.0155,-0.0162,-0.0136,-0.0131,-0.0125,-0.0105,-0.0098,-0.0089,-0.0086,-0.0041,-0.0033,-0.0003,0.0027,0.0035,0.0036,0.0051,0.0113,0.0113,0.0113,0.0066,0.0062,0.006,0,0,0,0,0,-0.0156,-0.0167,-0.0163,-0.0162,-0.0142,-0.0126,-0.0121,-0.0098,-0.009,-0.0088,-0.0057,-0.0034,0.0033,0.003,0.0039,0.004,0.0113,0.0113,0.0113,0.0067,0.0063,0.006,0,0,0,0,0,0,-0.0174,-0.0164,-0.0159,-0.0166,-0.0151,-0.012,-0.0119,-0.0104,-0.0078,-0.0077,-0.0034,-0.0024,-0.0001,0.0026,0.0021,0.006,0.0077,0.0078,0.0039,0.0035,0.0032,0.0022,0.0053,0,0,0,0,0,-0.0184,-0.0191,-0.0172,-0.0179,-0.0174,-0.0149,-0.014,-0.0126,-0.01,-0.0089,-0.0057,-0.0023,0.0006,0.0024,0.0054,0.0075,0.0105,0.0082,0.0079,0.0076,0.0074,0.012,0.0121,0.0112,0.0112,0.0112,0,0,-0.0194,-0.0189,-0.0193,-0.0184,-0.0171,-0.0168,-0.0142,-0.0135,-0.0129,-0.0084,-0.0066,-0.0035,0.0009,0.0032,0.0045,0.0055,0.0093,0.0076,0.0073,0.0073,0.012,0.0121,0.0122,0.0112,0.0112,0.0112,0,0,-0.0216,-0.0213,-0.0225,-0.0216,-0.0204,-0.0187,-0.0189,-0.0162,-0.0146,-0.0128,-0.0093,-0.0063,-0.002,0.0014,0.0036,0.0034,0.0073,0.0042,0.0021,0.0065,0.0067,0.0068,0.0098,0.0103,0.0043,0.0043,0.0043,0,-0.0229,-0.0242,-0.0225,-0.0232,-0.023,-0.02,-0.0208,-0.0187,-0.0154,-0.0142,-0.013,-0.0062,-0.0027,0.001,0.0009,0.0027,0.0054,0.003,0.0061,0.0063,0.0065,0.0097,0.0102,0.0041,0.0041,0.0041,0.0041,0,-0.0255,-0.0267,-0.0273,-0.0274,-0.0267,-0.027,-0.0243,-0.0231,-0.0211,-0.0185,-0.015,-0.0099,-0.0058,-0.0041,-0.0017,0.0016,0.0029,0.0049,0.0068,0.0063,0.0096,0.0103,0.0037,0.0038,0.0039,0.0039,0,0,-0.0282,-0.0292,-0.0295,-0.0307,-0.0292,-0.0292,-0.028,-0.0261,-0.0256,-0.0213,-0.0197,-0.0139,-0.011,-0.0083,-0.0042,-0.0003,0.0033,0.0024,0.0028,0.0049,0.0122,0.0114,0.012,0.0058,0.0059,0.006,0.0135,0,-0.031,-0.0342,-0.0332,-0.0358,-0.0371,-0.0343,-0.0337,-0.0313,-0.0283,-0.0257,-0.0195,-0.0165,-0.0125,-0.0108,-0.0061,0.0013,0.005,0.001,0.0128,0.0131,0.0121,0.0128,0.0064,0.0141,0.0142,0.0143,0.0144,0,-0.0336,-0.0357,-0.0392,-0.0408,-0.0411,-0.0418,-0.0407,-0.0398,-0.0347,-0.0322,-0.0272,-0.0222,-0.0154,-0.0125,0.0001,-0.0026,0.0038,0.0095,0.01,0.0114,0.0136,0.0151,0.0157,0.0156,0.0155,0.0154,0.0153,0,-0.0368,-0.0397,-0.0431,-0.0436,-0.0446,-0.0455,-0.0455,-0.042,-0.0415,-0.0362,-0.0348,-0.0256,-0.0211,-0.0112,0.0007,0.0005,0.0141,0.0158,0.021,0.021,0.0216,0.0214,0.0236,0.0236,0.0236,0.0236,0.0236,0,-0.0398,-0.0427,-0.0455,-0.0474,-0.0515,-0.0501,-0.0526,-0.0506,-0.0477,-0.0469,-0.0388,-0.0357,-0.0206,-0.0109,-0.0004,0.0124,0.0138,0.0207,0.0231,0.0192,0.0187,0.022,0.0217,0.0239,0.0238,0.0238,0.0237,0,-0.0424,-0.0442,-0.0488,-0.052,-0.0534,-0.0563,-0.0585,-0.0594,-0.056,-0.0545,-0.0531,-0.0423,-0.029,-0.0143,0.0027,0.0106,0.023,0.0267,0.0205,0.0226,0.027,0.0264,0.0335,0.0335,0.0336,0.0336,0.0336,0,-0.0437,-0.0465,-0.0529,-0.0567,-0.0588,-0.0629,-0.0654,-0.0639,-0.0642,-0.0584,-0.0576,-0.0454,-0.0366,-0.0132,0.002,0.0221,0.0245,0.0301,0.0293,0.0264,0.0282,0.0275,0.0268,0.0337,0.0337,0.0337,0.0337,0,-0.0463,-0.0491,-0.0531,-0.0613,-0.066,-0.0707,-0.0737,-0.0745,-0.0714,-0.0688,-0.06,-0.0471,-0.0323,-0.0135,0.0023,0.0163,0.0264,0.0305,0.0305,0.0299,0.0267,0.0283,0.0276,0.0338,0.0338,0.0338,0.0338,0,-0.0478,-0.0517,-0.0578,-0.0645,-0.0713,-0.0759,-0.0775,-0.0765,-0.0756,-0.068,-0.0653,-0.0485,-0.038,-0.0166,-0.0024,0.0121,0.0155,0.0191,0.0198,0.0198,0.0137,0.0075,0.0109,0,0,0,0,0,-0.0486,-0.0534,-0.0606,-0.0679,-0.0747,-0.0781,-0.0816,-0.0817,-0.0789,-0.0731,-0.0686,-0.0544,-0.0312,-0.0214,-0.0069,-0.0026,0.017,0.0145,0.0211,0.0345,0.0344,0.0294,0,0,0,0,0,0,-0.0493,-0.0561,-0.0604,-0.069,-0.0743,-0.0807,-0.083,-0.0814,-0.0774,-0.0726,-0.0601,-0.0521,-0.0296,-0.0389,-0.0068,-0.0025,0.0032,0.026,0.0262,0.0346,0.0344,0.0343,0.0292,0,0,0,0,0]}]]